Preview of NWS' New Version of Forecast
This preview is not operational and should not be used for support decisions.

Regional Weather Roundup (RWR)

Issued by National Weather Service (NWS)

                            
000
ASUS46 KPQR 232210
RWROR 

OREGON REGIONAL WEATHER ROUNDUP
NATIONAL WEATHER SERVICE PORTLAND OR
300 PM PDT SAT MAR 23 2019

NOTE: "FAIR" INDICATES FEW OR NO CLOUDS BELOW 12,000 FEET WITH
NO SIGNIFICANT WEATHER AND/OR OBSTRUCTIONS TO VISIBILITY.

ORZ001>013-232300-
NORTHWEST OREGON

  
CITY           SKY/WX    TMP DP  RH WIND       PRES   REMARKS
ASTORIA        CLOUDY    51  44  77 E7        30.20S                  
TILLAMOOK      CLOUDY    54  45  71 W10       30.21S                  
PORTLAND       PTSUNNY   57  41  55 CALM      30.17F                  
VANCOUVER WA   MOSUNNY   58  42  55 CALM      30.17F                  
SCAPPOOSE      CLOUDY    57  43  59 N9        30.17F                  
HILLSBORO      MOSUNNY   56  42  59 NW8       30.17F                  
AURORA         MOSUNNY   57  41  55 S5        30.18F                  
MCMINNVILLE    PTSUNNY   58  40  51 SW5       30.17F                  
SALEM          PTSUNNY   57  41  55 CALM      30.17S                  
CORVALLIS      CLOUDY    53  47  79 NW15      30.20S                  
EUGENE         LGT RAIN  51  40  65 S5        30.19R                  
$$

ORZ021-028-232300-
SOUTHWEST OREGON

  
CITY           SKY/WX    TMP DP  RH WIND       PRES   REMARKS
NORTH BEND     MOSUNNY   54  47  77 W9        30.24R                  
BROOKINGS      PTSUNNY   54  47  77 NW8       30.23S                  
ROSEBURG       PTSUNNY   58  39  49 N3        30.16F                  
SEXTON SUMMIT  CLOUDY    39  35  86 VRB3      30.12F                  
GRANTS PASS    PTSUNNY   54  37  54 CALM      30.17F                  
MEDFORD        PTSUNNY   51  40  65 CALM      30.15F                  
$$

ORZ014>016-041-232300-
COLUMBIA GORGE

  
CITY           SKY/WX    TMP DP  RH WIND       PRES   REMARKS
TROUTDALE      CLOUDY    58  43  57 NW6       30.17F                  
HOOD RIVER     PTSUNNY   59  36  41 W12G17    30.13S                  
THE DALLES     CLOUDY    62  37  39 NW13      30.11F                  
$$

ORZ029>031-041-044-049-050-061>064-502-503-505>511-232300-
EASTERN OREGON

  
CITY           SKY/WX    TMP DP  RH WIND       PRES   REMARKS
MADRAS         CLOUDY    50  34  53 CALM      30.13S                  
REDMOND        CLOUDY    50  33  52 W6        30.09F                  
BEND           CLOUDY    48  32  53 N6        30.09S                  
PRINEVILLE     CLOUDY    46  32  57 NW9       30.09S                  
KLAMATH FALLS  LGT RAIN  39  34  82 NW12      30.09S WCI  32          
LAKEVIEW       LGT SNOW  35  33  92 CALM      30.06S FOG              
HERMISTON      CLOUDY    62  35  36 N6        30.07F                  
PENDLETON      LGT RAIN  55  36  48 W13       30.08F                  
JOHN DAY       RAIN      43  41  93 W3        30.05F                  
MEACHAM        CLOUDY    43  33  68 VRB3      30.07F                  
LA GRANDE      CLOUDY    49  39  68 NW13      30.06S                  
BAKER CITY     CLOUDY    48  39  71 W12       30.04F                  
BURNS          LGT RAIN  42  36  79 NW12      30.02F                  
ROME             N/A     45  41  86 N9        29.96F                  
ONTARIO        CLOUDY    63  35  35 E8        29.99F                  
$$